Tiempo cada hora Mumare

Hoy, 27 Octubre, Martes

Tiempo Temperatura Precipitaciones Viento Presión Humedad
00:00 +1°C° 0 mm 2 mps 757 mmHg 87%
01:00 +1°C° 0 mm 2 mps 757 mmHg 87%
02:00 +1°C° 0 mm 2 mps 757 mmHg 88%
03:00 +1°C° 0 mm 2 mps 758 mmHg 88%
04:00 -1°C° 0 mm 2 mps 758 mmHg 88%
05:00 -1°C° 0 mm 2 mps 758 mmHg 89%
06:00 -1°C° 0 mm 2 mps 758 mmHg 89%
07:00 +1°C° 0 mm 2 mps 759 mmHg 86%
08:00 0°C° 0 mm 3 mps 759 mmHg 83%
09:00 +1°C° 0 mm 3 mps 759 mmHg 79%
10:00 +2°C° 0 mm 3 mps 759 mmHg 75%
11:00 +3°C° 0 mm 3 mps 759 mmHg 71%
12:00 +4°C° 0 mm 3 mps 759 mmHg 67%
13:00 +4°C° 0 mm 3 mps 759 mmHg 67%
14:00 +4°C° 0 mm 3 mps 759 mmHg 66%
15:00 +4°C° 0 mm 3 mps 759 mmHg 66%
16:00 +4°C° 0 mm 3 mps 759 mmHg 69%
17:00 +3°C° 0 mm 3 mps 759 mmHg 72%
18:00 +2°C° 0 mm 3 mps 759 mmHg 76%
19:00 +2°C° 0 mm 3 mps 759 mmHg 75%
20:00 +2°C° 0 mm 3 mps 759 mmHg 75%
21:00 +1°C° 0 mm 3 mps 759 mmHg 75%
22:00 +1°C° 0 mm 3 mps 759 mmHg 74%
23:00 +1°C° 0 mm 3 mps 759 mmHg 74%

Mañana, 28 Octubre, Miércoles

Tiempo Temperatura Precipitaciones Viento Presión Humedad
00:00 0°C° 0 mm 4 mps 759 mmHg 73%
01:00 +1°C° 0 mm 3 mps 759 mmHg 73%
02:00 0°C° 0 mm 3 mps 759 mmHg 72%
03:00 0°C° 0 mm 3 mps 759 mmHg 71%
04:00 -1°C° 0 mm 4 mps 759 mmHg 71%
05:00 -2°C° 0 mm 4 mps 759 mmHg 71%
06:00 -2°C° 0 mm 4 mps 759 mmHg 71%
07:00 -1°C° 0 mm 4 mps 759 mmHg 68%
08:00 -1°C° 0 mm 4 mps 759 mmHg 65%
09:00 0°C° 0 mm 5 mps 759 mmHg 61%
10:00 +1°C° 0 mm 5 mps 759 mmHg 58%
11:00 +2°C° 0 mm 5 mps 758 mmHg 55%
12:00 +5°C° 0 mm 5 mps 758 mmHg 52%
13:00 +5°C° 0 mm 5 mps 758 mmHg 53%
14:00 +5°C° 0 mm 4 mps 758 mmHg 53%
15:00 +5°C° 0 mm 4 mps 758 mmHg 54%
16:00 +4°C° 0 mm 4 mps 757 mmHg 57%
17:00 +3°C° 0 mm 4 mps 757 mmHg 60%
18:00 +2°C° 0 mm 3 mps 757 mmHg 63%
19:00 +1°C° 0 mm 4 mps 757 mmHg 64%
20:00 +1°C° 0 mm 4 mps 758 mmHg 64%
21:00 0°C° 0 mm 4 mps 758 mmHg 64%
22:00 0°C° 0 mm 4 mps 758 mmHg 64%
23:00 +1°C° 0 mm 3 mps 757 mmHg 65%

Pasado mañana, 29 Octubre, Jueves

Tiempo Temperatura Precipitaciones Viento Presión Humedad
00:00 +1°C° 0 mm 3 mps 757 mmHg 65%
01:00 0°C° 0 mm 3 mps 757 mmHg 66%
02:00 0°C° 0 mm 3 mps 757 mmHg 67%
03:00 0°C° 0 mm 3 mps 757 mmHg 68%
04:00 -1°C° 0 mm 3 mps 757 mmHg 69%
05:00 -1°C° 0 mm 3 mps 757 mmHg 69%
06:00 -1°C° 0 mm 3 mps 757 mmHg 70%
07:00 0°C° 0 mm 3 mps 757 mmHg 67%
08:00 0°C° 0 mm 4 mps 757 mmHg 64%
09:00 0°C° 0 mm 4 mps 757 mmHg 62%
10:00 +3°C° 0 mm 4 mps 756 mmHg 60%
11:00 +4°C° 0 mm 4 mps 756 mmHg 58%
12:00 +5°C° 0 mm 4 mps 756 mmHg 56%
13:00 +5°C° 0 mm 4 mps 756 mmHg 55%
14:00 +5°C° 0 mm 4 mps 755 mmHg 55%
15:00 +6°C° 0 mm 4 mps 755 mmHg 54%
16:00 +5°C° 0 mm 4 mps 755 mmHg 58%
17:00 +4°C° 0 mm 4 mps 755 mmHg 62%
18:00 +3°C° 0 mm 4 mps 754 mmHg 66%
19:00 +3°C° 0 mm 4 mps 754 mmHg 65%
20:00 +3°C° 0 mm 4 mps 754 mmHg 65%
21:00 +3°C° 0 mm 4 mps 754 mmHg 64%
22:00 +3°C° 0 mm 4 mps 754 mmHg 64%
23:00 +3°C° 0 mm 4 mps 754 mmHg 65%

30 Octubre, Viernes

Tiempo Temperatura Precipitaciones Viento Presión Humedad
00:00 +4°C° 0 mm 3 mps 753 mmHg 65%
01:00 +4°C° 0 mm 3 mps 753 mmHg 69%
02:00 +4°C° 0 mm 3 mps 753 mmHg 73%
03:00 +4°C° 0 mm 4 mps 752 mmHg 77%
04:00 +4°C° 0 mm 4 mps 752 mmHg 79%
05:00 +4°C° 0 mm 4 mps 752 mmHg 81%
06:00 +4°C° 0 mm 4 mps 752 mmHg 83%
07:00 +4°C° 0 mm 4 mps 752 mmHg 80%
08:00 +4°C° 0 mm 4 mps 752 mmHg 77%
09:00 +5°C° 0 mm 5 mps 752 mmHg 74%
10:00 +5°C° 0.1 mm 5 mps 751 mmHg 74%
11:00 +6°C° 0.1 mm 4 mps 751 mmHg 73%
12:00 +6°C° 0.1 mm 4 mps 751 mmHg 73%
13:00 +7°C° 0.1 mm 4 mps 751 mmHg 71%
14:00 +7°C° 0.1 mm 4 mps 750 mmHg 68%
15:00 +8°C° 0.1 mm 3 mps 750 mmHg 66%
16:00 +8°C° 0.1 mm 3 mps 750 mmHg 68%
17:00 +8°C° 0.1 mm 3 mps 750 mmHg 69%
18:00 +7°C° 0.1 mm 3 mps 750 mmHg 71%
19:00 +7°C° 0.2 mm 3 mps 750 mmHg 77%
20:00 +5°C° 0.2 mm 4 mps 750 mmHg 82%
21:00 +5°C° 0.2 mm 4 mps 750 mmHg 87%
22:00 +5°C° 0.4 mm 4 mps 750 mmHg 84%
23:00 +5°C° 0.4 mm 3 mps 750 mmHg 81%

31 Octubre, Sábado

Tiempo Temperatura Precipitaciones Viento Presión Humedad
00:00 +5°C° 0.4 mm 3 mps 750 mmHg 78%
01:00 +5°C° 0.2 mm 3 mps 749 mmHg 81%
02:00 +5°C° 0.2 mm 3 mps 749 mmHg 85%
03:00 +5°C° 0.2 mm 3 mps 749 mmHg 88%
04:00 +5°C° 0.3 mm 3 mps 749 mmHg 89%
05:00 +5°C° 0.3 mm 3 mps 749 mmHg 90%
06:00 +5°C° 0.3 mm 3 mps 749 mmHg 92%
07:00 +5°C° 0.1 mm 3 mps 749 mmHg 91%
08:00 +5°C° 0.1 mm 3 mps 749 mmHg 90%
09:00 +6°C° 0.1 mm 2 mps 749 mmHg 89%
10:00 +6°C° 0 mm 2 mps 749 mmHg 88%
11:00 +6°C° 0 mm 2 mps 750 mmHg 87%
12:00 +7°C° 0 mm 2 mps 750 mmHg 86%
13:00 +7°C° 0 mm 2 mps 750 mmHg 86%
14:00 +8°C° 0 mm 1 mps 750 mmHg 87%
15:00 +8°C° 0 mm 1 mps 750 mmHg 88%
16:00 +8°C° 0.1 mm 1 mps 751 mmHg 89%
17:00 +7°C° 0.1 mm 2 mps 751 mmHg 90%
18:00 +6°C° 0.1 mm 2 mps 751 mmHg 92%
19:00 +6°C° 0.1 mm 2 mps 752 mmHg 92%
20:00 +6°C° 0.1 mm 2 mps 752 mmHg 93%
21:00 +6°C° 0.1 mm 2 mps 752 mmHg 93%
22:00 +6°C° 0 mm 2 mps 752 mmHg 93%
23:00 +5°C° 0 mm 3 mps 753 mmHg 93%

1 Noviembre, Domingo

Tiempo Temperatura Precipitaciones Viento Presión Humedad
00:00 +5°C° 0 mm 3 mps 753 mmHg 93%
01:00 +5°C° 0.1 mm 3 mps 753 mmHg 93%
02:00 +5°C° 0.1 mm 3 mps 753 mmHg 92%
03:00 +5°C° 0.1 mm 3 mps 754 mmHg 92%
04:00 +5°C° 0 mm 3 mps 754 mmHg 92%
05:00 +5°C° 0 mm 3 mps 754 mmHg 92%
06:00 +5°C° 0 mm 3 mps 755 mmHg 92%
07:00 +5°C° 0 mm 3 mps 755 mmHg 91%
08:00 +5°C° 0 mm 3 mps 755 mmHg 90%
09:00 +5°C° 0 mm 3 mps 756 mmHg 90%
10:00 +7°C° 0 mm 3 mps 756 mmHg 86%
11:00 +7°C° 0 mm 3 mps 756 mmHg 82%
12:00 +7°C° 0 mm 4 mps 757 mmHg 78%
13:00 +7°C° 0 mm 4 mps 757 mmHg 78%
14:00 +7°C° 0 mm 4 mps 757 mmHg 78%
15:00 +7°C° 0 mm 4 mps 757 mmHg 78%
16:00 +6°C° 0 mm 4 mps 757 mmHg 82%
17:00 +6°C° 0 mm 4 mps 758 mmHg 87%
18:00 +5°C° 0 mm 4 mps 758 mmHg 91%
19:00 +5°C° 0 mm 4 mps 758 mmHg 91%
20:00 +4°C° 0 mm 4 mps 759 mmHg 91%
21:00 +4°C° 0 mm 4 mps 759 mmHg 91%
22:00 +4°C° 0 mm 3 mps 759 mmHg 90%
23:00 +4°C° 0 mm 3 mps 759 mmHg 90%
Mostrar más

Necesitamos Su Consentimiento

Meteoprog y nuestros Proveedores de Servicios pueden almacenar y acceder a sus datos personales como cookies, identificadores de dispositivo u otras tecnologías similares de su dispositivo y procesar dichos datos para personalizar contenido y anuncios, además de ofrecer funciones de redes sociales y analizar el tráfico.

  • Almacenar y/o acceder a información en su dispositivo

    Se puede almacenar o acceder a cookies, identificadores de dispositivo u otra información de su dispositivo para los fines anteriormente indicados.

  • Anuncios y contenido personalizados, medición de anuncios y contenido, percepciones del público, y desarrollo de productos

    Los anuncios y el contenido pueden personalizarse en base a su perfil. Se pueden añadir más datos para personalizar mejor los anuncios y contenidos. Se puede medir el rendimiento de los anuncios y contenidos. Se puede obtener la percepción sobre el público que ha visto los anuncios y contenidos. Dichos datos pueden usarse para desarrollar o mejorar la experiencia del usuario, sistemas y software.

Al hacer clic en ‘Estoy De Acuerdo’ usted permitirá el uso de las cookies, identificadores de dispositivo, balizas web u otras tecnologías similares indicadas. Su configuración puede cambiarse desde el navegador de su dispositivo.

Para ciertos fines, los intereses legítimos pueden ser considerados por encima del consentimiento. Puede leer más sobre ello en nuestra Política de Privacidad y Cookies.